[Date Prev][Date Next][Thread Prev][Thread Next] - [Date Index][Thread Index][Author Index]

2 Line ISS Keps 5-31 [ after burn ]



ISS
1 25544U 98067A   03151.14065972  .00068778  00000-0  86166-3 0   654
2 25544  51.6304 105.8882 0006694 194.7639 351.0342 15.59103180258340


----
Via the sarex mailing list at AMSAT.ORG courtesy of AMSAT-NA.
To unsubscribe, send "unsubscribe sarex" to Majordomo@amsat.org



AMSAT Top AMSAT Home